This demonstration page uses our WeatherBlox Daily Observations layout. Learn more.

Left ArrowRight Arrow

Hourly Observations for October 23, 2020

Temp ( °F °C ) Dew Point ( °F °C ) Humidity (%) Winds ( mph kmh ) Pressure ( in mb ) Visibility ( mi km ) Precip ( " mm )
12:15 am 00:15 Clear 64 18 64 18 100 100 SSE 8 13 30.00 1016 10 16 N/A
12:35 am 00:35 Clear 64 18 64 18 100 100 SSE 8 13 30.00 1016 10 16 N/A
12:55 am 00:55 Clear 64 18 64 18 100 100 S 8 13 29.99 1016 10 16 N/A
1:15 am 01:15 Clear 64 18 64 18 100 100 S 8 13 29.99 1016 10 16 N/A
1:35 am 01:35 Clear 64 18 64 18 100 100 S 7 11 29.98 1015 10 16 N/A
1:55 am 01:55 Clear 63 17 63 17 100 100 SSE 8 13 29.99 1015 10 16 N/A
2:15 am 02:15 Clear 63 17 63 17 100 100 S 7 11 29.99 1015 10 16 N/A
2:35 am 02:35 Clear 63 17 63 17 100 100 S 7 11 29.99 1015 10 16 N/A
2:55 am 02:55 Clear 63 17 63 17 100 100 S 7 11 30.00 1016 10 16 N/A
3:15 am 03:15 Clear 63 17 63 17 100 100 SSE 6 9 29.99 1015 10 16 N/A
3:35 am 03:35 Clear 63 17 63 17 100 100 S 6 9 29.99 1015 10 16 N/A
3:55 am 03:55 Clear 61 16 61 16 100 100 S 6 9 29.99 1016 10 16 N/A
4:15 am 04:15 Clear 61 16 61 16 100 100 S 5 7 29.99 1016 10 16 N/A
4:35 am 04:35 Clear 61 16 61 16 100 100 SSE 5 7 29.99 1016 10 16 N/A
4:55 am 04:55 Clear 61 16 61 16 100 100 S 5 7 29.99 1016 10 16 N/A
5:15 am 05:15 Clear 61 16 61 16 100 100 SSE 6 9 29.99 1016 10 16 N/A
5:35 am 05:35 Clear 61 16 61 16 100 100 SSE 6 9 29.99 1016 10 16 N/A
5:55 am 05:55 Clear 59 15 59 15 100 100 SSE 5 7 30.00 1016 10 16 N/A
6:15 am 06:15 Mostly Cloudy 61 16 61 16 100 100 SSE 7 11 29.99 1016 10 16 N/A
6:35 am 06:35 Mostly Cloudy 61 16 61 16 100 100 SSE 7 11 30.00 1016 10 16 N/A
6:55 am 06:55 Cloudy 61 16 61 16 100 100 S 6 9 30.00 1016 10 16 N/A
7:15 am 07:15 Mostly Cloudy 61 16 61 16 100 100 S 6 9 30.00 1016 10 16 N/A
7:35 am 07:35 Partly Cloudy 61 16 61 16 100 100 S 7 11 30.00 1016 10 16 N/A
7:55 am 07:55 Partly Cloudy 61 16 61 16 100 100 SSE 7 11 30.00 1016 10 16 N/A
8:15 am 08:15 Mostly Cloudy 61 16 61 16 100 100 SSE 8 13 29.99 1016 7 11 N/A
8:35 am 08:35 Cloudy 61 16 61 16 100 100 SSE 8 13 29.99 1016 10 16 N/A
8:55 am 08:55 Mostly Cloudy 63 17 63 17 100 100 SSE 8 13 29.99 1015 10 16 N/A
9:15 am 09:15 Mostly Cloudy 63 17 63 17 100 100 S 9 15 29.99 1015 7 11 N/A
9:35 am 09:35 Partly Cloudy 64 18 64 18 100 100 S 9 15 29.98 1015 10 16 N/A
9:55 am 09:55 Sunny 66 19 66 19 100 100 S 12 19 29.97 1015 10 16 N/A
10:15 am 10:15 Partly Cloudy 66 19 66 19 100 100 S 10 17 29.98 1015 10 16 N/A
10:35 am 10:35 Mostly Cloudy 66 19 66 19 100 100 S 10 17 29.97 1015 10 16 N/A
10:55 am 10:55 Mostly Cloudy 70 21 70 21 100 100 S 13 20 29.97 1015 10 16 N/A
11:15 am 11:15 Partly Cloudy 70 21 70 21 100 100 SSW 16 26 29.97 1015 10 16 N/A
11:35 am 11:35 Mostly Cloudy 70 21 70 21 100 100 S 14 22 29.96 1014 10 16 N/A
11:55 am 11:55 Mostly Cloudy 72 22 70 21 94 94 S 14 22 29.95 1014 10 16 N/A
12:15 pm 12:15 Cloudy 72 22 70 21 94 94 SSW 17 28 29.95 1014 10 16 N/A
12:35 pm 12:35 Cloudy 73 23 70 21 89 89 SSW 16 26 29.96 1015 10 16 N/A
12:55 pm 12:55 Cloudy 72 22 70 21 94 94 SSW 14 22 29.96 1015 10 16 N/A
1:15 pm 13:15 Cloudy 75 24 72 22 89 89 SSW 15 24 29.95 1014 10 16 N/A
1:35 pm 13:35 Mostly Cloudy 75 24 72 22 89 89 SSW 16 26 29.95 1014 10 16 N/A
1:55 pm 13:55 Cloudy 75 24 72 22 89 89 SSW 16 26 29.94 1014 10 16 N/A
2:15 pm 14:15 Mostly Cloudy 75 24 72 22 89 89 SSW 13 20 29.92 1013 10 16 N/A
2:35 pm 14:35 Mostly Cloudy 75 24 72 22 89 89 SSW 14 22 29.91 1013 10 16 N/A
2:55 pm 14:55 Cloudy 75 24 70 21 83 83 SSW 15 24 29.89 1012 10 16 N/A
3:15 pm 15:15 Mostly Cloudy 73 23 70 21 89 89 S 12 19 29.88 1012 10 16 N/A
3:35 pm 15:35 Mostly Cloudy 72 22 72 22 100 100 SSW 12 19 29.88 1012 10 16 N/A
3:55 pm 15:55 Mostly Cloudy 70 21 70 21 100 100 SSW 10 17 29.90 1012 10 16 N/A
4:15 pm 16:15 Mostly Cloudy 68 20 68 20 100 100 WSW 13 20 29.90 1012 10 16 N/A
4:35 pm 16:35 Cloudy 66 19 66 19 100 100 W 10 17 29.90 1013 10 16 N/A
4:55 pm 16:55 Partly Cloudy 66 19 66 19 100 100 W 8 13 29.91 1013 10 16 N/A
5:15 pm 17:15 Sunny 68 20 68 20 100 100 W 7 11 29.92 1013 10 16 N/A
5:35 pm 17:35 Partly Cloudy 66 19 66 19 100 100 W 7 11 29.91 1013 10 16 N/A
5:55 pm 17:55 Mostly Cloudy 66 19 66 19 100 100 W 12 19 29.92 1013 10 16 N/A
6:15 pm 18:15 Cloudy 64 18 64 18 100 100 WNW 23 37 29.94 1014 10 16 N/A
6:35 pm 18:35 Cloudy 55 13 55 13 100 100 NW 17 28 29.99 1016 10 16 N/A
6:55 pm 18:55 Cloudy 54 12 54 12 100 100 WNW 7 11 30.01 1016 4 6 N/A
7:15 pm 19:15 Cloudy 52 11 52 11 100 100 NW 18 30 30.02 1016 10 16 N/A
7:35 pm 19:35 Cloudy 50 10 50 10 100 100 NW 18 30 30.03 1017 7 11 N/A
7:55 pm 19:55 Cloudy 50 10 50 10 100 100 W 20 31 30.08 1019 10 16 N/A
8:15 pm 20:15 Cloudy 48 9 48 9 100 100 WNW 14 22 30.06 1018 4 6 N/A
8:35 pm 20:35 Cloudy 46 8 46 8 100 100 WNW 13 20 30.09 1019 5 8 N/A
8:55 pm 20:55 Cloudy 46 8 46 8 100 100 NW 17 28 30.10 1019 10 16 N/A
9:15 pm 21:15 Cloudy 46 8 46 8 100 100 WNW 16 26 30.11 1020 10 16 N/A
9:35 pm 21:35 Cloudy 45 7 45 7 100 100 NW 15 24 30.12 1020 7 11 N/A
9:55 pm 21:55 Cloudy 45 7 45 7 100 100 NW 15 24 30.13 1020 7 11 N/A
10:15 pm 22:15 Cloudy 46 8 46 8 100 100 NW 14 22 30.13 1020 10 16 N/A
10:35 pm 22:35 Cloudy 46 8 46 8 100 100 NNW 14 22 30.13 1020 10 16 N/A
10:55 pm 22:55 Cloudy 46 8 46 8 100 100 NNW 15 24 30.15 1021 10 16 N/A
11:15 pm 23:15 Cloudy 46 8 46 8 100 100 NW 13 20 30.16 1021 10 16 N/A
11:35 pm 23:35 Cloudy 46 8 46 8 100 100 NNW 17 28 30.16 1021 10 16 N/A
11:55 pm 23:55 Cloudy 45 7 45 7 100 100 NNW 14 22 30.16 1021 10 16 N/A

Powered by AerisWeather